Погода Ивано-Франковск

Поиск расширенной информации на нашем сайте:

Полезная информация:

Новости сайта



02.01.2020
Опубликован Долгосрочный прогноз погоды по городам России и ближнего зарубежья на январь 2020 года.
Карты: Прогноз на январь и февраль 2020 года, Сравнение прогнозируемой аномалии приземной температуры воздуха на январь 2020 года по разным моделям.




Погода Ивано-Франковск - сегодня

Время (UTC), дата Ветер
(°,м/с) 
Видим.   Явления Облачность Т
(°С)
Тd
(°С)
f(%) Тe
(°С)
Pmin
(гПа)
dP
(гПа)
Po
(мм)
O2
(г/м3)
Тmin Tmax R s Состояние
почвы
15 09.08.20 030 (СВ) 50000 м    4/4 1000 м 
[Cu med, cong]
+28.1 +15.1 45 +37  1015.4  -1.3  738  267           
18 09.08.20 тихо ()   50000 м    6/0 средняя 
[Ac trans]
+22.8 +17 70 +36  1016.2  0.2  738  271    +29.1       
21 09.08.20 330 (СЗ) 30000 м    6/4 1380 м средняя 
[Sc|Ac trans]
+19.7 +16.1 80 +32  1017.1  0.6  739  274           
00 10.08.20 230 (ЮЗ) 10 км  слаб. ливневой дождь  10/10 900 м кучево-дожд. 
[Cb cap]
+18.1 +16.6 91 +31  1017  -0.3  738  275      0.7     
03 10.08.20 тихо ()   0900 м  местами туман поземный{гроза, ливн. осадки}  8/4 1380 м средняя 
[Sc|Ac trans]
+17.7 +17.4 98 +31  1017.7  0.6  739  276           
06 10.08.20 тихо ()   20000 м  {гроза, ливн. осадки}  4/0 средняя 
[Ac trans]
+22 +18.2 79 +37  1017.2  739  271  +17.4    0.7     
09 10.08.20 330 (СЗ) 20000 м    4/4 1500 м 
[Cu hum]
+24.6 +16.9 62 +37  1016.8  -0.1  739  269           
12 10.08.20 020 (С) 20000 м    4/4 1500 м 
[Cu hum]
+26.8 +15 48 +36  1015.3  -1.2  738  268           
15 10.08.20 340 (С) 50000 м    5/5 1380 м 
[Cu med, cong]
+26.4 +16.1 53 +38  1014.9  -0.5  737  268           
18 10.08.20 230 (ЮЗ) 10 км  в посл. час гроза  8/8 1300 м 
[Sc]
+21.4 +17.9 80 +36  1016.1  0.7  738  272    +28       
21 10.08.20 тихо ()   10 км    5/0 средняя 
[Ac trans]
+17.5 +15.8 90 +28  1017.2  0.6  738  276           
00 11.08.20 тихо ()   9000 м  дымка  4/0 средняя 
[Ac trans]
+15.4 +14.5 94 +24  1017.5  0.1  739  279           
03 11.08.20 350 (С) 7000 м  дымка  6/0 средняя 
[Ac und]
+14.1 +13 93 +21  1018.2  0.5  739  280           
06 11.08.20 тихо ()   20000 м    4/0 верхняя 
[Ci fib]
+19.2 +15.5 79 +29  1018.3  0.7  739  275  +13.2         
09 11.08.20 090 (В) 50000 м    6/3 1500 м средняя 
[Cu hum|Ac trans]
+24.9 +16.9 61 +37  1017.4  -0.3  739  269           
12 11.08.20 270 (З) 50000 м    6/4 1000 м средняя 
[Cu med, cong|Ac trans]
+27.1 +13.7 44 +34  1016.5  -0.7  739  268           
15 11.08.20 360 (С) 50000 м    6/0 средняя 
[Ac trans]
+26.8 +15.6 50 +37  1015.7  -0.8  738  268           
18 11.08.20 тихо ()   10 км    6/4 1000 м средняя 
[Sc diur, vesp|Ac trans]
+21 +15 69 +30  1017.2  0.9  739  273    +28.2       
21 11.08.20 220 (ЮЗ) 10 км    4/4 1000 м 
[Sc]
+17.2 +15 87 +28  1018.1  0.4  739  277           
00 12.08.20 тихо ()   10 км    4/0 средняя 
[Ac trans]
+15 +14.1 94 +23  1018.3  739  279           
03 12.08.20 240 (ЮЗ) 10 км    6/0 средняя 
[Ac trans]
+14.4 +13.7 96 +23  1018.3  -0.1  739  280           
06 12.08.20 340 (С) 20000 м    3/0 средняя 
[Ac trans]
+19.1 +17 88 +33  1018.4  0.7  740  275  +14.3         
09 12.08.20 350 (С) 20000 м    3/0 средняя 
[Ac trans]
+23.8 +15.6 60 +34  1018.1  0.2  740  271           
12 12.08.20 310 (СЗ) 20000 м    6/6 1380 м 
[Cu hum]
+25.2 +13.5 48 +32  1017.5  -0.5  739  270           
15 12.08.20 340 (С) 20000 м    6/6 1500 м 
[Cu med, cong]
+24.7 +12.9 48 +30  1017.5  -0.1  739  271           
Время (UTC), дата Ветер
(°,м/с) 
Видим.   Явления Облачность Т
(°С)
Тd
(°С)
f(%) Тe
(°С)
Pmin
(гПа)
dP
(гПа)
Po
(мм)
O2
(г/м3)
Тmin Tmax R s Состояние
почвы

Для получения пояснительной информации подведите курсор к названию столбца.

ПОГОДА Ивано-Франковск - архив

Всё, что Вы хотите узнать о погоде Ивано-Франковск - удобно и подробно!

Выберите нужную дату (начиная с 1 января 2019* года) и нажмите кнопку "Найти".
Будут отображены архивные сводки погоды по пункту Ивано-Франковск, начиная с указанной даты.


Отображать данные в формате CSV (для использования в таблицах Excel)


Внимание! Наш архив погоды предназначен исключительно для личного некоммерческого использования в познавательных целях. Если Вам необходимы официальные справки о состоянии погоды (для производственных, юридических, коммерческих и т.п. целей), обращайтесь в органы Росгидромета.

*Примечание: данная дата относится к архиву по метеостанциям СССР (Россия, СНГ, Балтия).
Архив по метеостанциям Зарубежной Европы и Азии (кроме Китая) хранится 10 дней, по другим регионам земного шара (Китай, Африка, Америка, Австралия, Океания) - 1 день.

Ивано-Франковск - район местоположения метеостанции


Название, широта, долгота, высота метеостанции:
Ивано-Франковск 49°ш. 24.4°д. 280 м над ур. моря [Украина]

Дополнительная информация

В oтличие oт бoльшинства пoгoдных сайтoв мы публикуем пoдрoбную метеoинфoрмацию в детальнoм прoфессиoнальнoм фoрмате.

Характеристики температуры и влажнoсти вoздуха измеряются на высoте 2 м в тени вдали oт зданий и деревьев.
Скoрoсть ветра измеряется на высoте 10 м (на урoвне рoста челoвека скoрoсть ветра ниже в 1.5-2 раза). Если метеoстанция нахoдится в гoрoде или в лесу, тo скoрoсть ветра занижена на 2-4 м/с пo сравнению с oткрытым местoм. Скoрoсть ветра над акватoриями крупных рек и oзёр, а также на вершинах хoлмoв на 2-5 м/с выше, чем в oбычных услoвиях.
Атмoсфернoе давление в разных тoчках местнoсти мoжет значительнo oтличаться oт давления на метеoстанции, в зависимoсти oт услoвий рельефа (при пoдъёме на 10 м давление пoнижается примернo на 1 мм рт.ст.).